Home > Time Zones > World Clock > Weather > Iran > Rasht > Past weeks

Flag for Iran Weather past 2 weeks in Rasht, Iran

Now
50 °F

Clear.


Feels Like: 50 °F
Forecast: 39 / 61 °F
Wind: No wind

Location: Rasht Airport

Current Time: Dec 25, 2014 at 6:39:36 PM

Latest Report: Dec 25, 2014 at 6:00 PM


Visibility: 10 mi

Pressure: 30.18 "Hg

Humidity: 88%

Dew point: 46 °F

Location of RashtLocation

Historic Weather in Rasht — Graph

°F

Rasht temperature yesterday

Maximum temperature yesterday: 63 °F (at 2:30 PM)
Minimum temperature yesterday: 45 °F (at 6:30 AM)
Average temperature yesterday: 53 °F

Past Weeks' High & Low Weather Summary

 TemperatureHumidityPressure
High63 °F (Dec 24, 2:30 PM)100% (Dec 11, 6:30 AM)30.42 "Hg (Dec 11, 6:30 AM)
Low39 °F (Dec 25, 6:30 AM)42% (Dec 25, 1:30 PM)29.83 "Hg (Dec 22, 1:30 PM)
Average51 °F90%30.18 "Hg
* Reported Dec 10 5:30 PM — Dec 25 5:30 PM, Rasht, Weather by CustomWeather, © 2014

Note: Actual official high and low records may vary slightly from our data, if they occured in-between our weather recording intervals... More about our weather records

Advertising

Rasht weather history for previous 24 hours

 ConditionsComfort  
Time TempWeatherWind HumidityBarometerVisibility
5:30 PM
Dec 25
54 °FClear.5 mph77%30.18 "Hg10 mi
5:00 PM57 °FSunny.5 mph72%30.18 "Hg10 mi
4:30 PM59 °FSunny.5 mph68%30.18 "Hg10 mi
4:00 PM61 °FSunny.5 mph55%30.18 "Hg10 mi
3:30 PM63 °FSunny.5 mph52%30.18 "Hg10 mi
3:00 PM63 °FSunny.7 mph42%30.21 "Hg10 mi
2:30 PM63 °FSunny.9 mph42%30.21 "Hg10 mi
2:00 PM63 °FSunny.9 mph42%30.24 "Hg10 mi
1:30 PM63 °FSunny.7 mph42%30.24 "Hg10 mi
1:00 PM61 °FSunny.5 mph45%30.27 "Hg10 mi
12:30 PM61 °FSunny.5 mph45%30.27 "Hg10 mi
12:00 PM61 °FSunny.5 mph59%30.30 "Hg10 mi
11:30 AM61 °FSunny.No wind59%30.30 "Hg10 mi
11:00 AM59 °FSunny.No wind68%30.30 "Hg10 mi
10:30 AM57 °FSunny.No wind72%30.30 "Hg10 mi
10:00 AM54 °FSunny.No wind77%30.30 "Hg10 mi
9:30 AM52 °FSunny.No wind82%30.30 "Hg10 mi
9:00 AM48 °FSunny.No wind82%30.27 "Hg10 mi
8:30 AM43 °FSunny.No wind100%30.30 "Hg10 mi
8:00 AM39 °FSunny.No wind100%30.27 "Hg10 mi
7:00 AM39 °FClear.No wind100%30.24 "Hg10 mi
6:30 AM39 °FClear.No wind100%30.24 "Hg10 mi
7:30 PM
Dec 24
46 °FClear.No wind82%30.01 "Hg10 mi
7:00 PM50 °FClear.No wind76%29.98 "Hg10 mi
6:30 PM50 °FClear.7 mph76%29.98 "Hg10 mi
6:00 PM52 °FClear.5 mph82%30.01 "Hg10 mi
Weather by CustomWeather, © 2014

See weather overviewHow to use our weather pages